SCP
0 0 0 0 0 0 0 0 0 0 0 0 0 0 0 0 0 0 0 0 0 0 0 0 0 0 0 0 0 0 0 0 0 0 0 0 0 0 0 0 0 0 0 0 0
0 0 0 0 0 0 0 0 0 0 0 0 0 0 0 0 0 0 0 0 0 0 0 0 0 0 0 0 0 0 0 0 0 0 0 0 0 0 0 0 0 0 0 0 0
0 0 0 0 -0 0 0 0 0 0 0 0 0 0 0 0 0 0 0 0 0 0 0 0 0 0 0 0 0 0 0 0 0 0 0 0 0 0 0 0 0 0 0 -0 -0
0 0 0 0 0 0 -0 0 0 0 0 0 0 0 0 0 0 0 0 0 0 0 0 0 0 0 0 0 0 0 0 0 0 0 0 0 0 0 0 0 0 0 -0 -0 -0
0 0 0 0 0 0 -0 -0 -0 0 0 0 0 0 0 0 0 0 0 0 0 0 0 0 0 0 0 0 0 0 0 0 0 0 0 0 0 0 0 0 0 0 0 0 -0
0 0 0 0 0 0 -0 -0 0 0 0 0 0 0 0 0 0 0 0 0 0 0 0 0 0 0 0 0 0 0 0 0 0 0 0 0 0 0 -0 0 0 0 0 0 0
0 0 0 0 0 0 -0 -0 0 0 0 0 0 0 0 0 0 0 0 -0 0 0 0 0 0 0 0 0 0 0 0 0 0 0 0 0 0 0 -0 -0 -0 0 0 0 0
0 0 0 0 0 0 -0 -0 -0 0 0 0 0 0 0 0 0 0 0 -0 0 0 0 0 0 0 0 0 0 0 0 0 0 0 0 0 0 0 0 -0 -0 -0 0 0 0
0 0 0 0 0 0 0 0 -0 0 0 0 0 0 0 0 0 0 0 -0 0 0 0 0 0 0 0 0 0 0 0 0 -0 -0 0 0 0 0 0 0 -0 -0 0 0 0
0 0 0 0 0 0 0 0 0 0 0 0 0 0 0 0 0 0 0 0 0 0 0 0 0 0 0 0 0 0 0 0 0 -0 0 0 0 0 0 0 0 0 0 0 0
0 0 0 0 0 0 0 -0 -0 0 0 -0 -0 0 -0 0 0 0 0 0 0 0 0 0 0 0 0 0 0 0 0 0 -0 -0 0 0 0 0 0 0 0 0 0 0 0
0 0 0 0 0 0 0 -0 0 0 0 0 0 -0 -0 0 0 0 0 0 0 0 0 0 0 0 0 0 0 0 0 0 0 0 0 0 0 -0 0 0 0 0 0 0 0
0 0 0 0 -0 0 0 0 0 0 0 0 0 0 0 0 0 0 0 0 0 0 0 0 0 0 0 0 0 0 0 0 0 0 0 0 -0 0 -0 0 0 0 0 -0 0
0 0 0 0 0 0 0 0 0 0 0 0 -0 0 0 0 0 0 0 0 0 0 0 0 0 0 0 0 0 0 0 0 0 0 0 0 0 -0 0 0 0 0 0 0 0
0 0 0 0 0 0 0 0 0 0 0 0 0 0 0 0 0 0 0 0 0 0 0 0 0 0 0 0 0 0 -0 0 0 0 0 0 0 0 0 -0 0 0 0 0 0
0 0 0 0 0 0 0 0 0 0 0 0 0 0 0 0 0 0 0 0 0 0 0 0 0 0 0 0 -0 -0 0 0 0 0 0 0 0 0 0 0 -0 0 0 0 0
0 0 0 0 0 0 0 0 0 0 0 0 0 0 0 0 0 0 0 0 0 0 0 0 0 0 0 -0 0 0 0 -0 0 0 0 0 0 0 0 -0 0 -0 0 0 0
0 0 0 0 0 0 0 0 0 0 0 0 0 0 0 0 0 0 0 0 0 0 0 0 0 0 0 -0 0 0 0 0 0 0 0 -0 0 0 0 0 0 0 -0 0 0
0 0 0 0 0 0 0 0 0 0 0 0 0 0 0 0 0 0 0 0 0 0 0 0 0 0 0 0 0 0 0 0 0 0 0 0 0 0 0 -0 0 0 0 0 0
0 0 0 0 0 0 0 0 0 0 0 0 0 0 0 0 0 0 0 0 0 0 0 0 0 0 0 0 0 0 0 0 0 0 0 0 0 -0 -0 -0 -0 0 0 0 0
0 0 0 0 0 0 0 0 0 0 0 0 0 0 0 0 0 0 0 0 0 0 0 0 0 0 0 0 0 0 0 0 0 0 0 0 0 -0 -0 -0 -0 -0 -0 0 0
0 0 0 0 0 0 0 0 0 0 0 0 0 0 0 0 0 0 0 0 0 0 0 0 0 0 0 -0 0 0 0 0 0 0 0 0 0 -0 -0 -0 0 0 -0 0 0
0 0 0 0 0 0 0 0 0 0 0 0 0 0 0 0 0 0 0 0 0 0 0 0 0 0 0 0 0 0 0 0 0 0 0 -0 -0 -0 -0 -0 0 0 -0 -0 0
0 0 0 0 0 0 0 0 0 0 0 0 0 0 0 0 0 0 0 0 0 0 0 0 0 0 0 0 0 0 0 0 0 0 0 -0 0 -0 -0 -0 0 0 -0 0 0
0 0 0 0 0 0 0 0 0 0 0 0 0 0 0 0 0 0 0 0 0 0 0 0 0 0 0 0 -0 -0 -0 0 0 -0 -0 -0 0 -0 0 0 0 0 -0 0 0
0 0 0 0 0 0 0 0 0 0 0 0 0 0 0 0 0 0 0 0 0 0 0 0 0 0 0 0 -0 0 0 0 0 -0 -0 -0 -0 -0 0 -0 0 0 0 -0 -0
0 0 0 0 0 0 0 0 0 0 0 0 0 0 0 0 0 0 0 0 0 0 0 0 0 0 0 -0 0 0 -0 -0 0 0 -0 -0 -0 -0 -0 0 -0 -0 0 0 -0
Wind_Speed_500mb
43 41 45 43 42 43 44 44 46 46 45 45 46 49 50 52 42 13 27 15 18 26 26 32 31 40 48 16 33 30 14 35 59 59 54 33 28 65 53 64 66 74 57 44 53
49 44 48 45 48 46 50 50 50 47 47 48 49 49 52 36 22 19 16 18 25 40 53 53 46 43 24 20 18 9 20 58 54 36 35 48 51 50 32 60 62 65 77 52 39
48 48 46 50 51 52 52 52 51 48 51 53 50 49 41 27 8 5 18 31 43 44 35 25 23 26 13 19 8 10 37 33 50 59 57 54 61 51 49 57 79 54 68 67 59
55 56 51 50 53 54 53 53 51 51 54 50 45 38 32 21 8 16 25 31 25 26 38 30 29 19 7 9 23 24 44 51 58 61 51 40 75 49 52 75 67 72 80 72 71
55 62 57 57 55 55 55 52 50 54 52 47 35 38 33 17 6 11 19 28 28 35 37 34 27 18 8 25 29 24 35 46 56 67 62 57 54 57 69 84 81 75 79 92 80
52 58 59 58 57 54 55 52 51 54 49 39 28 29 18 3 10 19 32 44 45 44 42 24 16 27 25 19 10 28 46 51 55 53 64 51 54 62 75 63 78 77 84 70 73
54 57 59 59 54 56 56 52 55 47 44 25 31 15 13 3 16 28 39 36 30 27 34 29 30 29 27 19 33 32 27 35 48 62 51 65 51 57 81 68 67 66 78 73 77
53 58 57 58 55 58 53 58 47 49 21 42 20 4 7 1 10 38 34 44 37 27 34 34 36 43 27 32 37 24 23 26 46 37 39 39 44 50 62 59 59 64 66 71 67
50 55 57 59 58 57 56 58 48 21 45 11 4 5 1 11 31 45 37 43 36 45 31 23 26 38 27 12 21 9 23 37 51 40 37 34 42 44 62 60 51 52 59 68 64
52 57 60 62 60 54 61 63 36 13 35 7 7 3 1 30 34 51 38 25 46 35 24 12 8 5 5 6 17 38 33 43 49 62 35 45 46 47 68 69 57 62 52 46 55
56 56 61 64 55 45 60 49 44 8 45 17 21 14 25 37 51 45 22 39 10 6 8 7 4 16 32 21 32 37 36 47 59 56 40 48 44 49 51 50 39 54 55 55 64
53 53 61 64 43 34 49 43 31 20 21 6 12 25 24 35 42 31 33 15 9 16 5 9 14 27 16 19 35 39 42 47 53 41 31 35 51 48 46 40 46 45 48 51 60
53 56 60 62 32 35 38 44 38 19 6 18 12 8 10 53 18 21 24 20 8 7 7 10 27 29 28 30 39 41 33 43 47 47 39 38 53 39 49 44 60 65 66 65 69
53 61 60 65 27 38 26 44 31 17 8 9 7 2 21 44 10 16 17 20 7 10 12 11 7 13 39 33 31 34 22 40 48 32 29 15 28 38 26 29 29 32 53 58 69
54 59 67 62 49 30 42 46 21 6 8 12 6 8 49 8 24 6 20 23 15 17 8 21 21 40 37 23 19 24 36 36 46 40 27 13 11 2 10 12 23 29 47 59 65
54 55 63 65 36 24 40 38 4 10 9 11 12 18 25 16 7 13 14 19 27 9 5 29 30 20 16 25 14 33 20 46 8 5 2 15 13 9 12 23 31 26 43 34 48
60 56 58 58 26 23 36 16 8 8 11 14 9 13 29 10 10 5 11 14 0 14 18 35 6 9 6 21 14 11 14 8 11 8 11 14 17 5 21 30 27 34 32 37 30
62 62 62 40 17 22 31 9 8 6 11 7 10 30 10 6 7 8 9 7 3 4 5 7 31 9 12 8 13 13 7 3 14 13 33 29 8 9 17 21 36 40 42 34 30
64 65 68 20 14 19 14 5 12 11 7 8 21 4 8 5 2 11 5 7 11 10 3 10 14 29 30 8 10 13 4 9 11 7 5 9 6 13 41 31 31 31 41 42 40
59 68 39 11 5 15 5 12 11 13 7 5 10 8 10 9 5 5 4 10 7 14 11 8 30 10 8 10 8 8 10 7 4 10 11 10 4 15 41 37 35 32 30 43 48
55 25 13 14 9 8 6 14 12 23 20 16 12 9 18 6 10 6 12 8 12 10 9 7 11 18 12 4 13 9 2 4 5 7 6 8 7 11 23 26 28 25 37 41 44
30 7 16 21 4 7 5 12 16 18 36 21 13 18 15 11 9 10 16 17 11 3 4 13 7 9 22 24 12 10 5 8 4 9 6 6 8 7 13 21 24 25 38 42 43
20 23 26 29 7 9 10 12 17 14 15 14 13 20 6 14 5 15 12 16 33 3 7 5 7 17 18 12 6 2 7 5 10 10 7 5 8 9 12 20 27 28 40 43 44
19 7 13 35 32 8 8 10 11 27 22 18 12 21 9 8 13 14 13 8 12 16 45 31 2 11 19 27 12 25 22 25 3 5 7 8 14 17 19 21 25 35 42 43 48
14 11 18 13 16 25 17 10 18 14 23 15 8 31 16 12 7 23 32 28 17 44 9 6 11 8 26 33 29 33 25 11 6 10 6 8 9 10 16 16 19 29 37 44 48
39 19 29 24 22 22 31 27 35 30 14 14 30 31 28 26 26 17 12 7 15 6 5 1 9 4 18 16 12 11 11 10 6 5 9 10 7 7 11 22 21 29 35 39 45
39 60 37 33 26 23 15 26 27 26 33 51 36 33 28 54 57 59 52 40 27 16 22 8 6 2 11 6 12 3 6 6 4 6 6 4 8 8 5 14 20 30 32 33 41
Wind_Direction_500mb
359 3 355 352 344 343 340 338 338 336 334 333 328 326 322 332 343 52 45 21 358 342 329 314 301 305 312 306 260 260 239 237 239 241 245 281 269 267 281 283 283 278 283 282 300
0 353 347 348 348 345 338 337 335 334 332 329 327 324 326 341 7 92 6 6 351 335 324 330 331 325 310 272 275 218 239 239 251 267 263 280 275 284 304 284 278 279 275 282 286
354 352 351 349 345 345 339 335 335 334 332 329 328 328 337 345 341 53 347 338 327 330 342 344 334 332 271 281 220 242 253 274 272 288 296 294 285 294 258 262 261 279 283 289 288
350 354 352 346 343 341 336 335 335 333 329 328 330 329 341 342 320 356 344 338 339 343 353 350 340 336 290 278 309 289 279 286 290 290 292 290 294 289 288 271 278 274 275 282 284
347 347 348 347 344 341 337 337 337 333 328 328 331 325 339 308 235 332 328 343 336 332 342 342 332 327 301 308 303 275 284 283 291 296 291 287 280 285 276 285 291 285 281 272 273
341 344 348 346 344 340 338 339 338 330 323 323 312 322 334 282 54 353 333 334 333 328 327 315 314 301 288 268 284 274 279 281 282 280 287 285 280 277 275 285 289 286 284 285 270
344 345 347 345 343 339 338 341 339 327 327 330 319 310 302 145 1 340 320 326 328 328 316 321 303 294 295 300 290 275 291 286 278 271 273 277 280 271 280 279 276 268 275 278 277
343 340 344 343 343 339 339 343 342 324 348 332 328 227 273 61 329 324 336 330 332 329 309 310 301 284 264 276 276 284 286 281 272 272 265 261 274 280 285 286 274 268 273 274 273
342 341 344 345 346 339 340 344 340 344 352 331 108 28 72 309 320 336 331 324 324 324 322 309 286 259 262 257 289 202 275 281 285 269 270 264 273 274 274 278 279 277 266 264 274
346 344 345 344 345 341 342 346 351 328 7 96 6 106 226 317 324 325 327 312 322 334 339 350 251 245 281 140 270 291 284 280 276 285 281 276 270 269 274 274 273 265 263 274 275
348 342 343 343 346 342 345 8 13 337 357 325 299 282 299 323 322 322 332 317 304 353 341 302 295 257 275 247 262 276 273 273 276 276 274 271 273 267 266 264 262 263 255 255 265
343 344 345 346 349 347 350 25 5 330 315 331 290 272 311 338 314 340 349 345 329 308 305 333 258 275 285 281 287 284 280 283 283 286 281 280 268 261 261 251 247 247 254 254 259
344 347 346 348 350 343 355 1 346 340 310 301 316 306 317 333 299 305 338 340 295 289 275 187 260 299 294 293 293 284 277 285 286 301 286 270 272 260 258 254 255 258 254 249 250
344 349 346 346 353 339 348 342 336 334 66 286 327 244 325 336 253 326 6 343 320 275 299 233 271 284 301 291 287 286 298 294 289 296 294 27 292 284 258 256 253 254 248 244 246
337 343 344 345 331 334 336 334 329 319 1 303 310 282 334 314 288 263 312 321 241 251 82 253 301 300 301 275 310 278 307 293 292 288 289 300 252 201 296 316 347 326 275 250 247
336 340 340 339 334 332 335 331 335 40 273 333 329 325 336 302 269 283 304 308 283 286 286 254 265 270 237 283 294 310 301 303 344 304 304 262 182 318 14 339 341 334 352 289 251
332 336 335 329 318 335 339 328 23 104 346 303 303 323 317 269 297 25 328 327 126 1 332 322 233 271 251 346 319 32 342 312 342 349 238 278 290 347 2 355 342 334 350 356 2
326 329 331 324 298 336 342 40 72 217 238 289 295 305 258 7 279 323 335 337 11 114 294 327 322 2 299 241 227 291 268 334 306 321 302 300 234 114 27 358 346 344 350 3 8
321 325 327 304 301 320 336 45 201 202 222 273 318 343 290 220 247 16 215 229 216 179 114 314 269 307 290 256 118 292 338 262 273 292 339 275 43 233 356 356 357 349 356 357 2
319 323 315 234 277 307 86 239 220 206 182 185 203 165 244 252 15 44 241 217 233 190 149 239 292 283 280 356 324 155 304 329 344 303 311 304 36 331 348 347 351 351 356 357 355
305 309 256 243 273 237 204 227 231 212 178 197 216 256 230 276 202 240 245 271 210 204 189 200 228 279 7 239 280 340 317 311 263 242 270 304 277 334 356 336 341 348 351 353 352
291 270 260 242 262 218 201 203 209 198 204 240 230 228 199 198 265 240 239 228 220 92 269 216 256 267 247 283 202 185 240 290 258 289 253 279 267 22 358 338 347 355 355 358 360
285 273 259 224 234 220 260 242 220 196 199 207 231 206 157 194 242 213 238 254 263 242 218 241 243 296 327 349 343 201 267 286 284 268 228 269 290 74 358 349 357 360 360 2 8
276 281 229 205 241 184 251 233 236 233 225 210 238 218 166 227 232 266 249 258 233 254 281 286 296 216 263 267 271 298 295 307 161 256 307 242 291 337 356 359 354 2 3 10 17
261 256 247 261 233 231 226 231 221 236 215 209 241 227 190 222 221 233 256 272 257 281 260 132 257 201 256 263 278 274 280 276 219 244 236 300 282 313 347 355 344 358 10 12 16
281 275 275 260 263 253 242 245 241 243 206 212 227 241 212 226 209 209 223 227 250 309 128 216 271 69 288 283 241 247 222 258 224 285 274 286 290 11 330 356 10 9 10 17 15
284 295 289 289 288 270 259 257 253 238 238 232 238 240 223 227 236 241 244 258 242 214 269 237 225 201 263 303 308 340 217 246 211 214 223 280 240 340 332 358 2 10 17 19 23
Wind_Speed_850mb
43 41 45 43 42 43 44 44 46 46 45 45 46 49 50 52 42 13 27 15 18 26 26 32 31 40 48 16 33 30 14 35 59 59 54 33 28 65 53 64 66 74 57 44 53
49 44 48 45 48 46 50 50 50 47 47 48 49 49 52 36 22 19 16 18 25 40 53 53 46 43 24 20 18 9 20 58 54 36 35 48 51 50 32 60 62 65 77 52 39
48 48 46 50 51 52 52 52 51 48 51 53 50 49 41 27 8 5 18 31 43 44 35 25 23 26 13 19 8 10 37 33 50 59 57 54 61 51 49 57 79 54 68 67 59
55 56 51 50 53 54 53 53 51 51 54 50 45 38 32 21 8 16 25 31 25 26 38 30 29 19 7 9 23 24 44 51 58 61 51 40 75 49 52 75 67 72 80 72 71
55 62 57 57 55 55 55 52 50 54 52 47 35 38 33 17 6 11 19 28 28 35 37 34 27 18 8 25 29 24 35 46 56 67 62 57 54 57 69 84 81 75 79 92 80
52 58 59 58 57 54 55 52 51 54 49 39 28 29 18 3 10 19 32 44 45 44 42 24 16 27 25 19 10 28 46 51 55 53 64 51 54 62 75 63 78 77 84 70 73
54 57 59 59 54 56 56 52 55 47 44 25 31 15 13 3 16 28 39 36 30 27 34 29 30 29 27 19 33 32 27 35 48 62 51 65 51 57 81 68 67 66 78 73 77
53 58 57 58 55 58 53 58 47 49 21 42 20 4 7 1 10 38 34 44 37 27 34 34 36 43 27 32 37 24 23 26 46 37 39 39 44 50 62 59 59 64 66 71 67
50 55 57 59 58 57 56 58 48 21 45 11 4 5 1 11 31 45 37 43 36 45 31 23 26 38 27 12 21 9 23 37 51 40 37 34 42 44 62 60 51 52 59 68 64
52 57 60 62 60 54 61 63 36 13 35 7 7 3 1 30 34 51 38 25 46 35 24 12 8 5 5 6 17 38 33 43 49 62 35 45 46 47 68 69 57 62 52 46 55
56 56 61 64 55 45 60 49 44 8 45 17 21 14 25 37 51 45 22 39 10 6 8 7 4 16 32 21 32 37 36 47 59 56 40 48 44 49 51 50 39 54 55 55 64
53 53 61 64 43 34 49 43 31 20 21 6 12 25 24 35 42 31 33 15 9 16 5 9 14 27 16 19 35 39 42 47 53 41 31 35 51 48 46 40 46 45 48 51 60
53 56 60 62 32 35 38 44 38 19 6 18 12 8 10 53 18 21 24 20 8 7 7 10 27 29 28 30 39 41 33 43 47 47 39 38 53 39 49 44 60 65 66 65 69
53 61 60 65 27 38 26 44 31 17 8 9 7 2 21 44 10 16 17 20 7 10 12 11 7 13 39 33 31 34 22 40 48 32 29 15 28 38 26 29 29 32 53 58 69
54 59 67 62 49 30 42 46 21 6 8 12 6 8 49 8 24 6 20 23 15 17 8 21 21 40 37 23 19 24 36 36 46 40 27 13 11 2 10 12 23 29 47 59 65
54 55 63 65 36 24 40 38 4 10 9 11 12 18 25 16 7 13 14 19 27 9 5 29 30 20 16 25 14 33 20 46 8 5 2 15 13 9 12 23 31 26 43 34 48
60 56 58 58 26 23 36 16 8 8 11 14 9 13 29 10 10 5 11 14 0 14 18 35 6 9 6 21 14 11 14 8 11 8 11 14 17 5 21 30 27 34 32 37 30
62 62 62 40 17 22 31 9 8 6 11 7 10 30 10 6 7 8 9 7 3 4 5 7 31 9 12 8 13 13 7 3 14 13 33 29 8 9 17 21 36 40 42 34 30
64 65 68 20 14 19 14 5 12 11 7 8 21 4 8 5 2 11 5 7 11 10 3 10 14 29 30 8 10 13 4 9 11 7 5 9 6 13 41 31 31 31 41 42 40
59 68 39 11 5 15 5 12 11 13 7 5 10 8 10 9 5 5 4 10 7 14 11 8 30 10 8 10 8 8 10 7 4 10 11 10 4 15 41 37 35 32 30 43 48
55 25 13 14 9 8 6 14 12 23 20 16 12 9 18 6 10 6 12 8 12 10 9 7 11 18 12 4 13 9 2 4 5 7 6 8 7 11 23 26 28 25 37 41 44
30 7 16 21 4 7 5 12 16 18 36 21 13 18 15 11 9 10 16 17 11 3 4 13 7 9 22 24 12 10 5 8 4 9 6 6 8 7 13 21 24 25 38 42 43
20 23 26 29 7 9 10 12 17 14 15 14 13 20 6 14 5 15 12 16 33 3 7 5 7 17 18 12 6 2 7 5 10 10 7 5 8 9 12 20 27 28 40 43 44
19 7 13 35 32 8 8 10 11 27 22 18 12 21 9 8 13 14 13 8 12 16 45 31 2 11 19 27 12 25 22 25 3 5 7 8 14 17 19 21 25 35 42 43 48
14 11 18 13 16 25 17 10 18 14 23 15 8 31 16 12 7 23 32 28 17 44 9 6 11 8 26 33 29 33 25 11 6 10 6 8 9 10 16 16 19 29 37 44 48
39 19 29 24 22 22 31 27 35 30 14 14 30 31 28 26 26 17 12 7 15 6 5 1 9 4 18 16 12 11 11 10 6 5 9 10 7 7 11 22 21 29 35 39 45
39 60 37 33 26 23 15 26 27 26 33 51 36 33 28 54 57 59 52 40 27 16 22 8 6 2 11 6 12 3 6 6 4 6 6 4 8 8 5 14 20 30 32 33 41
Wind_Direction_850mb
359 3 355 352 344 343 340 338 338 336 334 333 328 326 322 332 343 52 45 21 358 342 329 314 301 305 312 306 260 260 239 237 239 241 245 281 269 267 281 283 283 278 283 282 300
0 353 347 348 348 345 338 337 335 334 332 329 327 324 326 341 7 92 6 6 351 335 324 330 331 325 310 272 275 218 239 239 251 267 263 280 275 284 304 284 278 279 275 282 286
354 352 351 349 345 345 339 335 335 334 332 329 328 328 337 345 341 53 347 338 327 330 342 344 334 332 271 281 220 242 253 274 272 288 296 294 285 294 258 262 261 279 283 289 288
350 354 352 346 343 341 336 335 335 333 329 328 330 329 341 342 320 356 344 338 339 343 353 350 340 336 290 278 309 289 279 286 290 290 292 290 294 289 288 271 278 274 275 282 284
347 347 348 347 344 341 337 337 337 333 328 328 331 325 339 308 235 332 328 343 336 332 342 342 332 327 301 308 303 275 284 283 291 296 291 287 280 285 276 285 291 285 281 272 273
341 344 348 346 344 340 338 339 338 330 323 323 312 322 334 282 54 353 333 334 333 328 327 315 314 301 288 268 284 274 279 281 282 280 287 285 280 277 275 285 289 286 284 285 270
344 345 347 345 343 339 338 341 339 327 327 330 319 310 302 145 1 340 320 326 328 328 316 321 303 294 295 300 290 275 291 286 278 271 273 277 280 271 280 279 276 268 275 278 277
343 340 344 343 343 339 339 343 342 324 348 332 328 227 273 61 329 324 336 330 332 329 309 310 301 284 264 276 276 284 286 281 272 272 265 261 274 280 285 286 274 268 273 274 273
342 341 344 345 346 339 340 344 340 344 352 331 108 28 72 309 320 336 331 324 324 324 322 309 286 259 262 257 289 202 275 281 285 269 270 264 273 274 274 278 279 277 266 264 274
346 344 345 344 345 341 342 346 351 328 7 96 6 106 226 317 324 325 327 312 322 334 339 350 251 245 281 140 270 291 284 280 276 285 281 276 270 269 274 274 273 265 263 274 275
348 342 343 343 346 342 345 8 13 337 357 325 299 282 299 323 322 322 332 317 304 353 341 302 295 257 275 247 262 276 273 273 276 276 274 271 273 267 266 264 262 263 255 255 265
343 344 345 346 349 347 350 25 5 330 315 331 290 272 311 338 314 340 349 345 329 308 305 333 258 275 285 281 287 284 280 283 283 286 281 280 268 261 261 251 247 247 254 254 259
344 347 346 348 350 343 355 1 346 340 310 301 316 306 317 333 299 305 338 340 295 289 275 187 260 299 294 293 293 284 277 285 286 301 286 270 272 260 258 254 255 258 254 249 250
344 349 346 346 353 339 348 342 336 334 66 286 327 244 325 336 253 326 6 343 320 275 299 233 271 284 301 291 287 286 298 294 289 296 294 27 292 284 258 256 253 254 248 244 246
337 343 344 345 331 334 336 334 329 319 1 303 310 282 334 314 288 263 312 321 241 251 82 253 301 300 301 275 310 278 307 293 292 288 289 300 252 201 296 316 347 326 275 250 247
336 340 340 339 334 332 335 331 335 40 273 333 329 325 336 302 269 283 304 308 283 286 286 254 265 270 237 283 294 310 301 303 344 304 304 262 182 318 14 339 341 334 352 289 251
332 336 335 329 318 335 339 328 23 104 346 303 303 323 317 269 297 25 328 327 126 1 332 322 233 271 251 346 319 32 342 312 342 349 238 278 290 347 2 355 342 334 350 356 2
326 329 331 324 298 336 342 40 72 217 238 289 295 305 258 7 279 323 335 337 11 114 294 327 322 2 299 241 227 291 268 334 306 321 302 300 234 114 27 358 346 344 350 3 8
321 325 327 304 301 320 336 45 201 202 222 273 318 343 290 220 247 16 215 229 216 179 114 314 269 307 290 256 118 292 338 262 273 292 339 275 43 233 356 356 357 349 356 357 2
319 323 315 234 277 307 86 239 220 206 182 185 203 165 244 252 15 44 241 217 233 190 149 239 292 283 280 356 324 155 304 329 344 303 311 304 36 331 348 347 351 351 356 357 355
305 309 256 243 273 237 204 227 231 212 178 197 216 256 230 276 202 240 245 271 210 204 189 200 228 279 7 239 280 340 317 311 263 242 270 304 277 334 356 336 341 348 351 353 352
291 270 260 242 262 218 201 203 209 198 204 240 230 228 199 198 265 240 239 228 220 92 269 216 256 267 247 283 202 185 240 290 258 289 253 279 267 22 358 338 347 355 355 358 360
285 273 259 224 234 220 260 242 220 196 199 207 231 206 157 194 242 213 238 254 263 242 218 241 243 296 327 349 343 201 267 286 284 268 228 269 290 74 358 349 357 360 360 2 8
276 281 229 205 241 184 251 233 236 233 225 210 238 218 166 227 232 266 249 258 233 254 281 286 296 216 263 267 271 298 295 307 161 256 307 242 291 337 356 359 354 2 3 10 17
261 256 247 261 233 231 226 231 221 236 215 209 241 227 190 222 221 233 256 272 257 281 260 132 257 201 256 263 278 274 280 276 219 244 236 300 282 313 347 355 344 358 10 12 16
281 275 275 260 263 253 242 245 241 243 206 212 227 241 212 226 209 209 223 227 250 309 128 216 271 69 288 283 241 247 222 258 224 285 274 286 290 11 330 356 10 9 10 17 15
284 295 289 289 288 270 259 257 253 238 238 232 238 240 223 227 236 241 244 258 242 214 269 237 225 201 263 303 308 340 217 246 211 214 223 280 240 340 332 358 2 10 17 19 23